Time,TemperatureF,DewpointF,PressureIn,WindDirection,WindDirectionDegrees,WindSpeedMPH,WindSpeedGustMPH,Humidity,HourlyPrecipIn,Conditions,Clouds,dailyrainin,SoftwareType,DateUTC
2013-04-07 00:17:00,72.5,61.4,25.28,ENE,67,6.9,6.9,61,0.00,,,-99.99,Homeseer,2013-04-07 04:17:00,
2013-04-07 00:27:00,72.3,60.9,25.28,ESE,112,6.0,11.0,60,0.00,,,-99.99,Homeseer,2013-04-07 04:27:00,
2013-04-07 00:37:00,72.3,60.5,25.28,SE,135,7.6,8.7,59,0.00,,,-99.99,Homeseer,2013-04-07 04:37:00,
2013-04-07 00:47:00,72.3,61.2,25.28,ESE,112,6.7,12.8,61,0.00,,,-99.99,Homeseer,2013-04-07 04:47:00,
2013-04-07 00:57:00,72.3,61.2,25.28,SSE,157,5.8,9.6,61,0.00,,,-99.99,Homeseer,2013-04-07 04:57:00,
2013-04-07 01:07:00,72.3,60.5,25.28,ESE,112,8.7,11.2,59,0.00,,,-99.99,Homeseer,2013-04-07 05:07:00,
2013-04-07 01:17:00,72.3,61.9,25.28,ESE,112,6.5,7.6,63,0.00,,,-99.99,Homeseer,2013-04-07 05:17:00,
2013-04-07 01:27:00,72.3,61.6,25.28,ESE,112,6.3,12.1,62,0.00,,,-99.99,Homeseer,2013-04-07 05:27:00,
2013-04-07 01:37:00,72.1,61.7,25.28,SE,135,7.4,8.7,63,0.00,,,-99.99,Homeseer,2013-04-07 05:37:00,
2013-04-07 01:47:00,72.3,62.3,25.28,SSE,157,4.9,7.6,64,0.00,,,-99.99,Homeseer,2013-04-07 05:47:00,
2013-04-07 01:57:00,72.1,61.0,25.28,ESE,112,9.8,12.1,61,0.00,,,-99.99,Homeseer,2013-04-07 05:57:00,
2013-04-07 02:07:00,72.1,62.1,25.28,ESE,112,6.3,9.4,64,0.00,,,-99.99,Homeseer,2013-04-07 06:07:00,
2013-04-07 02:17:00,72.1,61.7,25.28,ESE,112,7.2,10.3,63,0.00,,,-99.99,Homeseer,2013-04-07 06:17:00,
2013-04-07 02:27:00,72.1,62.1,25.28,SE,135,4.9,10.7,64,0.00,,,-99.99,Homeseer,2013-04-07 06:27:00,
2013-04-07 02:37:00,72.1,61.4,25.28,SSE,157,7.8,8.7,62,0.00,,,-99.99,Homeseer,2013-04-07 06:37:00,
2013-04-07 02:47:00,72.1,61.4,25.28,SE,135,6.0,6.0,62,0.00,,,-99.99,Homeseer,2013-04-07 06:47:00,
2013-04-07 02:57:00,72.3,61.9,25.28,North,0,9.4,9.4,63,0.00,,,-99.99,Homeseer,2013-04-07 06:57:00,
2013-04-07 03:07:00,72.0,62.0,25.28,ESE,112,7.6,7.8,64,0.00,,,-99.99,Homeseer,2013-04-07 07:07:00,
2013-04-07 03:17:00,72.0,60.6,25.28,ESE,112,7.2,7.2,60,0.00,,,-99.99,Homeseer,2013-04-07 07:17:00,
2013-04-07 03:28:00,72.1,61.0,25.28,SSE,157,5.6,8.1,61,0.00,,,-99.99,Homeseer,2013-04-07 07:28:00,
2013-04-07 03:38:00,71.8,62.5,25.28,East,90,6.0,6.0,66,0.00,,,-99.99,Homeseer,2013-04-07 07:38:00,
2013-04-07 03:48:00,71.8,60.8,25.28,ESE,112,6.0,6.0,61,0.00,,,-99.99,Homeseer,2013-04-07 07:48:00,
2013-04-07 03:58:00,72.0,59.9,25.28,SSE,157,7.6,11.9,58,0.00,,,-99.99,Homeseer,2013-04-07 07:58:00,
2013-04-07 04:08:00,72.1,60.7,25.28,South,180,7.2,7.2,60,0.00,,,-99.99,Homeseer,2013-04-07 08:08:00,
2013-04-07 04:18:00,72.1,59.6,25.28,SSE,157,8.5,11.0,57,0.00,,,-99.99,Homeseer,2013-04-07 08:18:00,
2013-04-07 04:28:00,72.1,60.3,25.28,ESE,112,8.5,8.5,59,0.00,,,-99.99,Homeseer,2013-04-07 08:28:00,
2013-04-07 04:38:00,72.1,61.0,25.28,SSE,157,5.4,5.4,61,0.00,,,-99.99,Homeseer,2013-04-07 08:38:00,
2013-04-07 04:48:00,72.0,61.6,25.28,ESE,112,7.8,7.8,63,0.00,,,-99.99,Homeseer,2013-04-07 08:48:00,
2013-04-07 04:58:00,72.0,60.9,25.28,SSE,157,5.8,9.8,61,0.00,,,-99.99,Homeseer,2013-04-07 08:58:00,
2013-04-07 05:08:00,72.0,60.6,25.28,ESE,112,6.7,7.8,60,0.00,,,-99.99,Homeseer,2013-04-07 09:08:00,
2013-04-07 05:18:00,72.0,60.9,25.28,SE,135,5.8,5.8,61,0.00,,,-99.99,Homeseer,2013-04-07 09:18:00,
2013-04-07 05:28:00,72.1,61.4,25.28,ESE,112,5.4,5.4,62,0.00,,,-99.99,Homeseer,2013-04-07 09:28:00,
2013-04-07 05:38:00,72.1,60.7,25.28,ESE,112,6.0,8.5,60,0.00,,,-99.99,Homeseer,2013-04-07 09:38:00,
2013-04-07 05:48:00,72.1,60.7,25.28,North,0,6.7,6.7,60,0.00,,,-99.99,Homeseer,2013-04-07 09:48:00,
2013-04-07 05:58:00,72.0,60.9,25.28,SE,135,4.7,4.7,61,0.00,,,-99.99,Homeseer,2013-04-07 09:58:00,
2013-04-07 06:08:00,72.0,61.6,25.28,ESE,112,3.8,3.8,63,0.00,,,-99.99,Homeseer,2013-04-07 10:08:00,
2013-04-07 06:18:00,71.8,61.5,25.28,ESE,112,4.0,6.5,63,0.00,,,-99.99,Homeseer,2013-04-07 10:18:00,
2013-04-07 06:28:00,71.8,61.5,25.28,ESE,112,7.6,7.8,63,0.00,,,-99.99,Homeseer,2013-04-07 10:28:00,
2013-04-07 06:38:00,71.8,60.4,25.28,ESE,112,7.4,7.8,60,0.00,,,-99.99,Homeseer,2013-04-07 10:38:00,
2013-04-07 06:48:00,71.8,60.8,25.28,SE,135,6.3,6.3,61,0.00,,,-99.99,Homeseer,2013-04-07 10:48:00,
2013-04-07 06:58:00,71.8,60.8,25.28,East,90,6.3,7.2,61,0.00,,,-99.99,Homeseer,2013-04-07 10:58:00,
2013-04-07 07:08:00,71.8,60.8,25.28,ESE,112,7.8,7.8,61,0.00,,,-99.99,Homeseer,2013-04-07 11:08:00,
2013-04-07 07:18:00,71.8,60.0,25.28,SE,135,6.9,7.4,59,0.00,,,-99.99,Homeseer,2013-04-07 11:18:00,
2013-04-07 07:28:00,72.0,60.6,25.28,SE,135,8.5,8.5,60,0.00,,,-99.99,Homeseer,2013-04-07 11:28:00,
2013-04-07 07:38:00,72.1,61.0,25.28,SE,135,6.3,6.3,61,0.00,,,-99.99,Homeseer,2013-04-07 11:38:00,
2013-04-07 07:48:00,72.5,60.3,25.28,SSE,157,4.5,6.5,58,0.00,,,-99.99,Homeseer,2013-04-07 11:48:00,
2013-04-07 07:58:00,72.7,60.5,25.28,ESE,112,5.8,5.8,58,0.00,,,-99.99,Homeseer,2013-04-07 11:58:00,
2013-04-07 08:08:00,72.9,59.9,25.28,SE,135,5.6,9.6,56,0.00,,,-99.99,Homeseer,2013-04-07 12:08:00,
2013-04-07 08:18:00,73.0,60.0,25.28,SE,135,6.3,8.1,56,0.00,,,-99.99,Homeseer,2013-04-07 12:18:00,
2013-04-07 08:28:00,73.2,59.4,25.28,ESE,112,4.7,4.7,54,0.00,,,-99.99,Homeseer,2013-04-07 12:28:00,
2013-04-07 08:38:00,73.2,60.2,25.28,ESE,112,6.5,6.5,56,0.00,,,-99.99,Homeseer,2013-04-07 12:38:00,
2013-04-07 08:48:00,73.6,60.2,25.28,SSE,157,4.9,4.9,55,0.00,,,-99.99,Homeseer,2013-04-07 12:48:00,
2013-04-07 08:58:00,73.6,60.6,25.28,ESE,112,4.7,5.6,56,0.00,,,-99.99,Homeseer,2013-04-07 12:58:00,
2013-04-07 09:08:00,73.4,60.0,25.28,East,90,4.0,4.3,55,0.00,,,-99.99,Homeseer,2013-04-07 13:08:00,
2013-04-07 09:18:00,73.2,60.6,25.28,ESE,112,4.7,4.7,57,0.00,,,-99.99,Homeseer,2013-04-07 13:18:00,
2013-04-07 09:28:00,73.0,62.2,25.28,SE,135,4.5,5.4,62,0.00,,,-99.99,Homeseer,2013-04-07 13:28:00,
2013-04-07 09:38:00,72.7,62.6,25.28,East,90,6.7,6.7,64,0.00,,,-99.99,Homeseer,2013-04-07 13:38:00,
2013-04-07 09:48:00,72.7,62.6,25.28,SSE,157,7.8,7.8,64,0.00,,,-99.99,Homeseer,2013-04-07 13:48:00,
2013-04-07 09:58:00,73.0,62.9,25.28,East,90,7.2,14.5,64,0.00,,,-99.99,Homeseer,2013-04-07 13:58:00,
2013-04-07 10:08:00,73.8,62.3,25.28,ESE,112,6.3,6.3,60,0.00,,,-99.99,Homeseer,2013-04-07 14:08:00,
2013-04-07 10:18:00,73.2,62.1,25.28,ESE,112,5.4,6.5,61,0.00,,,-99.99,Homeseer,2013-04-07 14:18:00,
2013-04-07 10:28:00,73.6,62.1,25.28,East,90,5.6,6.3,60,0.00,,,-99.99,Homeseer,2013-04-07 14:28:00,
2013-04-07 10:38:00,74.1,62.9,25.28,ENE,67,5.4,5.4,61,0.00,,,-99.99,Homeseer,2013-04-07 14:38:00,
2013-04-07 10:48:00,73.2,61.7,25.28,East,90,9.0,9.0,60,0.00,,,-99.99,Homeseer,2013-04-07 14:48:00,
2013-04-07 10:58:00,72.5,61.8,25.28,ESE,112,6.3,9.8,62,0.00,,,-99.99,Homeseer,2013-04-07 14:58:00,
2013-04-07 11:08:00,72.5,61.8,25.28,SE,135,3.6,3.6,62,0.00,,,-99.99,Homeseer,2013-04-07 15:08:00,
2013-04-07 11:18:00,72.9,62.1,25.28,East,90,5.4,6.0,62,0.00,,,-99.99,Homeseer,2013-04-07 15:18:00,
2013-04-07 11:28:00,73.2,61.3,25.28,ESE,112,4.5,6.3,59,0.00,,,-99.99,Homeseer,2013-04-07 15:28:00,
2013-04-07 11:38:00,73.9,60.5,25.28,SE,135,6.5,7.6,55,0.00,,,-99.99,Homeseer,2013-04-07 15:38:00,
2013-04-07 11:48:00,73.8,60.4,25.28,East,90,9.0,10.3,55,0.00,,,-99.99,Homeseer,2013-04-07 15:48:00,
2013-04-07 11:58:00,73.8,60.4,25.28,SE,135,6.9,8.1,55,0.00,,,-99.99,Homeseer,2013-04-07 15:58:00,
2013-04-07 12:08:00,74.1,59.9,25.28,SE,135,6.9,6.9,53,0.00,,,-99.99,Homeseer,2013-04-07 16:08:00,
2013-04-07 12:18:00,74.5,59.4,25.28,ESE,112,4.7,5.6,51,0.00,,,-99.99,Homeseer,2013-04-07 16:18:00,
2013-04-07 12:28:00,74.8,58.8,25.28,SE,135,6.3,7.2,49,0.00,,,-99.99,Homeseer,2013-04-07 16:28:00,
2013-04-07 12:38:00,75.0,59.4,25.28,East,90,4.9,7.2,50,0.00,,,-99.99,Homeseer,2013-04-07 16:38:00,
2013-04-07 12:48:00,75.4,58.9,25.28,SE,135,6.5,6.5,48,0.00,,,-99.99,Homeseer,2013-04-07 16:48:00,
2013-04-07 12:58:00,76.1,58.2,25.28,SE,135,5.4,8.7,45,0.00,,,-99.99,Homeseer,2013-04-07 16:58:00,
2013-04-07 13:08:00,75.2,59.2,25.28,ESE,112,6.7,8.1,49,0.00,,,-99.99,Homeseer,2013-04-07 17:08:00,
2013-04-07 13:18:00,74.8,58.8,25.28,North,0,6.5,6.5,49,0.00,,,-99.99,Homeseer,2013-04-07 17:18:00,
2013-04-07 13:28:00,74.3,58.8,25.28,ESE,112,4.0,5.4,50,0.00,,,-99.99,Homeseer,2013-04-07 17:28:00,
2013-04-07 13:38:00,74.1,59.0,25.28,SSE,157,3.1,3.8,51,0.00,,,-99.99,Homeseer,2013-04-07 17:38:00,
2013-04-07 13:48:00,74.3,56.6,25.28,SE,135,6.0,6.0,45,0.00,,,-99.99,Homeseer,2013-04-07 17:48:00,
2013-04-07 13:58:00,74.3,57.0,25.28,SSE,157,5.4,5.8,46,0.00,,,-99.99,Homeseer,2013-04-07 17:58:00,
2013-04-07 14:08:00,74.7,57.8,25.28,ESE,112,4.3,7.8,47,0.00,,,-99.99,Homeseer,2013-04-07 18:08:00,
2013-04-07 14:18:00,74.5,57.7,25.28,SSE,157,4.5,5.4,47,0.00,,,-99.99,Homeseer,2013-04-07 18:18:00,
2013-04-07 14:28:00,74.8,57.9,25.28,ESE,112,4.9,8.1,47,0.00,,,-99.99,Homeseer,2013-04-07 18:28:00,
2013-04-07 14:37:00,75.2,57.8,25.28,ESE,112,5.6,5.6,46,0.00,,,-99.99,Homeseer,2013-04-07 18:37:00,
2013-04-07 14:47:00,76.6,58.1,25.28,ESE,112,7.4,12.1,44,0.00,,,-99.99,Homeseer,2013-04-07 18:47:00,
2013-04-07 14:57:00,77.5,57.4,25.28,ESE,112,7.8,7.8,41,0.00,,,-99.99,Homeseer,2013-04-07 18:57:00,
2013-04-07 15:07:00,77.9,57.8,25.28,ESE,112,6.7,6.7,41,0.00,,,-99.99,Homeseer,2013-04-07 19:07:00,
2013-04-07 15:17:00,77.4,57.4,25.28,ESE,112,6.7,7.8,41,0.00,,,-99.99,Homeseer,2013-04-07 19:17:00,
2013-04-07 15:27:00,76.5,56.6,25.28,ESE,112,8.1,8.5,41,0.00,,,-99.99,Homeseer,2013-04-07 19:27:00,
2013-04-07 15:37:00,77.4,56.8,25.28,SSE,157,7.8,7.8,40,0.00,,,-99.99,Homeseer,2013-04-07 19:37:00,
2013-04-07 15:47:00,77.4,57.4,25.28,ESE,112,5.4,6.5,41,0.00,,,-99.99,Homeseer,2013-04-07 19:47:00,
2013-04-07 15:57:00,77.2,57.2,25.28,South,180,5.8,6.5,41,0.00,,,-99.99,Homeseer,2013-04-07 19:57:00,
2013-04-07 16:07:00,76.6,56.7,25.28,East,90,6.0,7.2,41,0.00,,,-99.99,Homeseer,2013-04-07 20:07:00,
2013-04-07 16:17:00,76.6,57.2,25.28,SE,135,5.4,7.8,42,0.00,,,-99.99,Homeseer,2013-04-07 20:17:00,
2013-04-07 16:27:00,77.0,57.5,25.28,SE,135,6.0,6.3,42,0.00,,,-99.99,Homeseer,2013-04-07 20:27:00,
2013-04-07 16:37:00,77.0,57.5,25.28,SE,135,5.8,6.0,42,0.00,,,-99.99,Homeseer,2013-04-07 20:37:00,
2013-04-07 16:47:00,77.4,58.4,25.28,ESE,112,5.4,6.0,43,0.00,,,-99.99,Homeseer,2013-04-07 20:47:00,
2013-04-07 16:57:00,76.8,57.3,25.28,ESE,112,5.8,5.8,42,0.00,,,-99.99,Homeseer,2013-04-07 20:57:00,
2013-04-07 17:07:00,76.3,57.4,25.28,SSE,157,6.9,6.9,43,0.00,,,-99.99,Homeseer,2013-04-07 21:07:00,
2013-04-07 17:17:00,75.9,58.0,25.28,ESE,112,4.5,8.1,45,0.00,,,-99.99,Homeseer,2013-04-07 21:17:00,
2013-04-07 17:27:00,75.9,57.5,25.28,North,0,4.0,4.0,44,0.00,,,-99.99,Homeseer,2013-04-07 21:27:00,
2013-04-07 17:37:00,75.4,57.1,25.28,SSE,157,6.3,6.7,44,0.00,,,-99.99,Homeseer,2013-04-07 21:37:00,
2013-04-07 17:47:00,75.6,57.7,25.28,South,180,4.0,4.3,45,0.00,,,-99.99,Homeseer,2013-04-07 21:47:00,
2013-04-07 17:57:00,75.6,56.8,25.28,ESE,112,5.4,5.4,43,0.00,,,-99.99,Homeseer,2013-04-07 21:57:00,
2013-04-07 18:07:00,75.2,56.9,25.28,SE,135,5.6,5.8,44,0.00,,,-99.99,Homeseer,2013-04-07 22:07:00,
2013-04-07 18:17:00,75.0,57.7,25.28,ESE,112,4.5,4.5,46,0.00,,,-99.99,Homeseer,2013-04-07 22:17:00,
2013-04-07 18:27:00,74.8,57.0,25.28,SE,135,4.0,7.4,45,0.00,,,-99.99,Homeseer,2013-04-07 22:27:00,
2013-04-07 18:37:00,74.7,57.8,25.28,South,180,4.5,4.5,47,0.00,,,-99.99,Homeseer,2013-04-07 22:37:00,
2013-04-07 18:47:00,74.5,57.2,25.28,ESE,112,4.0,4.0,46,0.00,,,-99.99,Homeseer,2013-04-07 22:47:00,
2013-04-07 18:57:00,74.5,57.2,25.28,South,180,4.0,4.9,46,0.00,,,-99.99,Homeseer,2013-04-07 22:57:00,
2013-04-07 19:07:00,74.3,56.6,25.28,ESE,112,5.8,5.8,45,0.00,,,-99.99,Homeseer,2013-04-07 23:07:00,
2013-04-07 19:17:00,74.1,56.9,25.28,ESE,112,4.5,4.5,46,0.00,,,-99.99,Homeseer,2013-04-07 23:17:00,
2013-04-07 19:28:00,73.8,56.6,25.28,SE,135,4.9,4.9,46,0.00,,,-99.99,Homeseer,2013-04-07 23:28:00,
2013-04-07 19:38:00,73.8,56.6,25.28,ESE,112,3.4,6.5,46,0.00,,,-99.99,Homeseer,2013-04-07 23:38:00,
2013-04-07 19:48:00,73.6,57.3,25.28,SSE,157,4.7,4.7,48,0.00,,,-99.99,Homeseer,2013-04-07 23:48:00,
2013-04-07 19:58:00,73.4,57.6,25.28,ESE,112,5.8,5.8,49,0.00,,,-99.99,Homeseer,2013-04-07 23:58:00,
2013-04-07 20:08:00,73.4,57.6,25.28,SSE,157,4.5,4.7,49,0.00,,,-99.99,Homeseer,2013-04-08 00:08:00,
2013-04-07 20:18:00,73.2,57.4,25.28,SSE,157,4.9,6.3,49,0.00,,,-99.99,Homeseer,2013-04-08 00:18:00,
2013-04-07 20:28:00,73.2,56.9,25.28,SE,135,5.4,8.7,48,0.00,,,-99.99,Homeseer,2013-04-08 00:28:00,
2013-04-07 20:38:00,73.2,57.8,25.28,North,0,4.9,4.9,50,0.00,,,-99.99,Homeseer,2013-04-08 00:38:00,
2013-04-07 20:48:00,73.2,58.2,25.28,SSE,157,4.9,4.9,51,0.00,,,-99.99,Homeseer,2013-04-08 00:48:00,
2013-04-07 20:58:00,73.2,58.2,25.28,North,0,4.7,4.7,51,0.00,,,-99.99,Homeseer,2013-04-08 00:58:00,
2013-04-07 21:08:00,73.0,57.6,25.28,SE,135,6.3,7.6,50,0.00,,,-99.99,Homeseer,2013-04-08 01:08:00,
2013-04-07 21:18:00,73.0,56.3,25.28,ESE,112,4.3,9.2,47,0.00,,,-99.99,Homeseer,2013-04-08 01:18:00,
2013-04-07 21:28:00,73.0,57.6,25.28,SSE,157,6.5,6.5,50,0.00,,,-99.99,Homeseer,2013-04-08 01:28:00,
2013-04-07 21:38:00,73.0,58.0,25.28,SE,135,4.0,4.9,51,0.00,,,-99.99,Homeseer,2013-04-08 01:38:00,
2013-04-07 21:48:00,73.0,57.6,25.28,SE,135,4.5,9.8,50,0.00,,,-99.99,Homeseer,2013-04-08 01:48:00,
2013-04-07 21:58:00,73.0,57.6,25.28,SE,135,3.8,4.0,50,0.00,,,-99.99,Homeseer,2013-04-08 01:58:00,
2013-04-07 22:08:00,73.0,56.8,25.28,North,0,4.7,4.7,48,0.00,,,-99.99,Homeseer,2013-04-08 02:08:00,
2013-04-07 22:18:00,73.0,56.8,25.28,SE,135,4.0,4.0,48,0.00,,,-99.99,Homeseer,2013-04-08 02:18:00,
2013-04-07 22:28:00,73.2,56.9,25.28,North,0,4.3,4.3,48,0.00,,,-99.99,Homeseer,2013-04-08 02:28:00,
2013-04-07 22:38:00,73.2,56.5,25.28,North,0,4.9,4.9,47,0.00,,,-99.99,Homeseer,2013-04-08 02:38:00,
2013-04-07 22:48:00,73.2,56.9,25.28,ESE,112,3.8,3.8,48,0.00,,,-99.99,Homeseer,2013-04-08 02:48:00,
2013-04-07 23:08:00,73.0,57.2,25.28,ESE,112,4.0,4.0,49,0.00,,,-99.99,Homeseer,2013-04-08 03:08:00,
2013-04-07 23:18:00,73.0,56.3,25.28,SSE,157,3.6,4.9,47,0.00,,,-99.99,Homeseer,2013-04-08 03:18:00,
2013-04-07 23:28:00,73.0,56.8,25.28,SE,135,1.3,1.3,48,0.00,,,-99.99,Homeseer,2013-04-08 03:28:00,
2013-04-07 23:38:00,73.0,56.8,25.28,SE,135,4.5,5.4,48,0.00,,,-99.99,Homeseer,2013-04-08 03:38:00,
2013-04-07 23:48:00,73.0,57.2,25.28,ESE,112,4.5,4.5,49,0.00,,,-99.99,Homeseer,2013-04-08 03:48:00,
2013-04-07 23:58:00,72.9,57.1,25.28,ESE,112,6.7,6.7,49,0.00,,,-99.99,Homeseer,2013-04-08 03:58:00,